Powrót do katalogu

RADUGA 1M-1

AktywnyMilitariaGEO
NORAD 32373·PAYLOAD·🇷🇺 Russia

Wystrzelony Dec 9, 2007 z Baikonur Cosmodrome

Loading…

TLE

ŚwieżeSource: Space-Track

Epoka: Sep 14, 2026, 05:11 UTC

1 32373U 07058A   26257.21657737 -.00000212  00000-0  00000-0 0  9994
2 32373  10.3702  50.8733 0001579 152.7228 216.8351  0.99400700 53281

Śledź RADUGA 1M-1 w czasie rzeczywistym z AllMySat

Download on the App Store